GFSMW_prec_cthk_231.txt.gz
RH
17 17 18 19 19 21 22 24 29 28 30 28 27 26 24 24 25 27 29 28 26 27 28 29 30 32 35 37 40 43 45 47 50 51 50 51 52 53 54 58 62 63 51
14 17 18 18 18 18 18 19 19 22 25 27 27 28 26 26 26 32 32 30 28 28 29 30 31 32 35 38 41 45 48 51 51 51 53 53 52 54 56 58 54 48 51
10 13 17 19 19 19 19 20 20 20 21 23 25 26 28 28 26 31 34 31 31 30 31 32 33 34 36 38 43 46 50 50 53 53 55 55 55 55 55 59 55 50 50
12 11 12 16 18 19 20 20 20 20 21 20 20 22 21 21 21 28 35 37 36 35 35 36 36 36 37 40 44 49 51 53 53 55 58 61 61 61 59 55 52 49 45
13 13 13 12 13 16 20 22 21 20 19 19 21 20 22 21 25 27 36 40 41 40 42 42 42 40 41 43 46 50 53 55 57 58 61 63 63 66 60 53 46 43 43
15 12 11 11 12 13 16 19 20 20 20 18 18 19 21 25 27 29 35 39 40 46 45 45 48 48 49 50 49 52 55 56 60 64 64 62 65 62 59 47 46 41 41
24 22 21 20 18 17 16 18 17 16 16 20 24 24 27 30 30 32 35 37 43 48 50 51 53 53 55 57 60 64 65 65 69 73 68 70 63 68 52 51 43 39 39
24 26 25 24 24 23 21 22 21 20 20 21 24 26 32 34 36 38 36 37 41 49 55 58 58 61 65 67 69 74 80 86 81 75 67 66 67 54 51 46 43 45 44
13 16 22 27 28 25 24 27 27 27 28 29 29 30 32 32 33 34 41 44 45 52 57 61 63 67 66 66 74 80 82 76 70 67 72 77 62 57 51 47 49 45 46
17 15 14 14 19 24 26 25 24 25 26 27 30 30 29 29 31 32 36 39 45 55 61 66 67 68 67 66 67 67 68 66 71 76 81 64 60 54 51 52 47 45 43
23 22 20 17 14 15 18 22 24 25 25 25 27 29 30 30 33 35 38 41 45 51 58 62 65 68 68 65 63 70 67 71 79 83 69 59 57 53 52 48 44 42 42
29 26 25 23 21 19 17 17 18 19 21 22 21 22 25 28 32 37 38 43 49 56 59 61 64 65 66 65 68 72 69 79 88 82 67 52 58 56 50 44 41 44 46
36 32 29 27 26 24 21 19 18 17 18 19 19 18 19 26 31 36 36 42 52 58 59 58 61 63 61 58 67 61 76 97 86 68 51 59 53 51 48 43 44 46 52
45 41 37 34 32 29 29 26 24 22 22 25 28 25 25 27 32 39 40 51 57 57 57 58 59 61 59 57 59 61 79 83 78 59 61 53 51 50 47 43 45 52 55
47 46 43 39 38 34 33 32 29 25 28 28 30 33 35 39 43 48 53 56 57 58 61 61 63 63 60 58 62 64 68 56 53 49 48 52 54 50 46 44 50 58 60
44 44 44 42 41 41 37 36 35 31 32 32 35 38 45 47 49 55 56 61 61 62 62 64 64 58 60 65 63 61 54 54 51 51 52 50 52 50 49 54 62 63 61
40 42 41 41 39 42 42 41 40 39 35 36 36 41 47 58 61 59 61 64 63 64 65 67 63 62 64 66 61 58 56 47 50 54 51 52 53 56 57 59 58 59 55
36 36 39 41 42 43 44 40 45 42 42 39 45 49 52 61 67 65 66 68 67 67 72 69 67 66 67 65 69 63 51 56 59 58 54 54 55 56 55 58 60 56 59
34 34 35 38 43 45 42 46 45 46 42 41 49 56 62 65 69 71 72 73 71 73 74 74 73 71 71 75 68 57 59 59 58 59 54 51 49 51 59 62 62 59 56
37 35 33 34 35 42 45 47 46 50 50 50 45 51 63 70 71 70 71 71 72 71 72 78 81 78 78 71 63 60 56 59 61 58 56 56 59 65 66 65 64 62 61
38 39 35 34 35 35 40 44 45 45 50 53 52 50 52 63 69 74 72 72 72 74 79 79 81 79 73 71 66 64 63 60 60 59 58 65 69 71 69 68 67 64 60
38 37 41 40 37 32 35 36 41 42 48 51 55 56 57 56 61 68 73 77 78 80 84 83 82 80 77 74 71 67 62 64 66 66 65 69 70 72 72 69 66 66 65
38 37 39 38 38 35 34 34 34 40 44 50 55 57 58 60 63 68 72 70 73 76 84 84 82 85 79 76 71 68 69 76 71 68 72 73 72 76 75 73 71 67 64
40 43 45 40 37 35 35 33 33 38 40 38 43 51 57 60 64 64 72 80 77 78 82 85 82 85 80 79 75 79 80 74 72 78 80 78 79 79 80 78 75 71 66
54 60 54 50 44 40 39 34 33 40 42 41 43 48 54 61 66 68 76 83 92 93 92 93 89 85 79 79 85 85 77 79 83 81 80 81 83 84 83 79 76 70 65
57 60 61 60 54 58 49 40 33 39 40 44 48 50 59 66 71 73 80 82 85 89 97 92 80 81 88 94 93 87 83 85 89 83 83 87 87 84 81 79 75 66 61

GFSMW_prec_cthk_234.txt.gz
RH
16 20 27 34 45 45 45 41 42 37 34 30 28 27 26 28 29 29 29 30 29 27 28 31 34 33 35 37 40 42 44 45 47 53 54 55 52 49 51 52 53 55 58
12 17 20 27 28 29 34 37 39 38 35 36 35 35 35 34 31 29 28 32 34 31 29 30 35 34 37 38 38 41 42 43 46 50 53 55 54 50 49 52 54 55 48
10 12 16 21 23 25 24 22 22 27 29 27 32 34 36 36 35 31 30 30 34 37 33 32 35 36 36 39 40 41 42 44 47 51 52 54 57 55 53 55 54 57 51
13 12 12 15 18 19 21 20 21 21 22 22 26 26 26 30 27 29 32 31 33 38 40 36 34 34 36 39 41 42 44 48 48 51 52 54 54 59 60 60 62 57 52
14 14 13 13 13 17 19 19 19 20 20 21 21 24 24 25 27 27 29 30 32 37 43 44 38 39 41 40 42 43 44 46 50 54 57 59 58 63 68 66 62 58 53
20 17 14 14 13 13 16 16 17 19 20 20 22 22 22 23 27 28 27 30 32 33 39 44 43 41 43 45 47 48 48 52 53 57 60 61 63 68 75 72 66 61 58
26 26 21 18 14 12 13 14 16 17 18 18 19 23 22 23 26 29 30 34 34 32 40 44 47 49 51 52 52 54 57 60 61 63 68 72 77 79 77 65 62 58 55
29 28 26 27 22 18 16 15 14 15 22 22 21 25 28 29 28 32 33 35 37 34 38 42 49 54 57 61 62 62 65 67 69 76 82 80 76 75 72 66 61 57 51
29 29 28 27 26 25 25 22 20 22 25 30 24 23 23 24 22 30 37 40 42 40 41 46 49 59 63 64 62 61 68 71 73 74 77 76 72 73 75 67 58 53 49
23 25 26 26 27 28 28 27 27 27 30 33 34 33 25 24 24 27 31 39 45 45 49 52 55 60 63 64 66 70 72 73 74 75 79 78 75 75 70 59 52 52 46
26 26 25 23 22 22 25 29 31 29 27 27 29 34 37 35 37 34 34 38 41 45 47 51 57 60 65 66 67 68 70 73 72 74 79 77 79 78 65 55 54 50 43
29 28 27 26 26 25 23 21 24 29 32 32 30 29 29 32 32 31 32 35 40 42 46 50 56 60 62 64 67 70 72 70 69 72 73 78 83 81 56 53 56 44 41
38 35 33 33 31 29 28 28 26 23 23 27 28 25 26 31 33 35 38 37 44 46 48 51 56 58 60 64 68 72 69 70 70 71 78 78 78 66 58 54 45 44 41
55 51 46 42 38 34 32 32 31 27 25 25 27 27 30 29 29 30 32 32 35 39 43 50 53 59 63 65 69 70 67 68 75 68 74 80 70 54 48 47 45 45 45
60 60 55 48 45 39 37 36 36 34 30 28 25 24 28 30 28 25 25 27 32 36 41 50 56 59 63 67 68 67 68 70 66 71 66 63 50 46 48 46 44 45 51
52 55 56 52 49 47 44 43 42 41 37 34 34 28 32 35 37 37 35 35 37 42 50 56 58 61 64 68 73 73 69 67 69 75 61 56 54 50 46 47 46 49 51
46 47 46 50 51 52 47 42 43 43 43 39 37 36 33 41 45 45 43 44 46 53 55 58 61 66 70 78 76 72 72 70 66 65 59 55 53 52 50 50 51 50 45
40 39 42 46 43 44 49 46 45 45 45 45 41 42 41 45 49 51 52 54 57 58 61 67 69 69 76 80 77 76 74 67 66 60 56 58 56 52 49 53 48 48 54
41 42 38 38 38 38 38 45 46 48 45 46 46 45 49 46 51 60 62 62 66 70 67 73 75 76 81 82 79 80 72 69 65 57 60 60 55 57 57 53 54 57 57
42 41 41 39 32 32 35 38 41 47 48 46 47 48 48 52 54 62 69 73 71 76 77 81 84 85 87 85 83 78 73 66 59 63 58 59 62 58 57 57 58 57 57
45 43 38 41 40 35 35 33 35 37 42 45 43 46 47 47 55 63 72 75 75 79 85 90 92 89 88 87 84 80 70 61 63 63 65 59 59 60 64 62 61 58 58
37 38 41 41 40 40 35 33 31 32 34 36 39 46 50 50 54 58 68 72 78 79 83 89 91 89 89 86 87 79 73 70 71 70 67 64 67 69 65 65 62 62 63
44 40 40 39 39 40 38 35 29 36 32 31 36 44 48 49 58 64 65 71 72 81 85 88 83 86 86 85 89 85 80 82 80 77 78 79 75 70 67 64 63 63 65
48 46 44 37 38 35 38 38 35 33 33 30 32 39 45 49 58 69 72 71 72 75 75 80 81 83 82 81 81 78 81 81 80 83 86 83 74 69 68 70 67 70 72
50 47 45 44 39 40 44 43 41 38 31 30 30 37 41 55 58 69 75 75 77 76 76 79 82 82 82 85 86 86 83 83 89 88 87 85 75 70 76 81 78 77 74
54 52 49 48 44 50 53 53 56 51 40 32 29 32 35 45 62 70 70 74 74 76 76 78 82 85 91 88 93 92 93 90 95 92 88 80 79 78 84 82 80 76 73

GFSMW_prec_cthk_237.txt.gz
RH
9 14 16 26 42 49 48 45 37 37 36 32 30 29 29 31 31 31 33 33 33 32 33 34 33 34 35 36 37 39 42 44 47 49 51 54 57 55 57 54 53 55 54
11 13 18 21 38 50 56 51 44 38 37 38 34 32 32 32 32 32 31 31 31 33 35 35 36 34 36 37 37 37 40 42 46 48 51 52 54 55 52 52 53 54 56
12 11 15 22 25 39 53 59 53 48 45 43 42 42 42 41 39 33 33 33 33 33 35 39 41 39 38 39 38 39 40 39 42 46 47 50 48 55 51 51 52 52 55
11 15 14 17 23 28 36 42 50 52 50 48 46 43 41 41 39 37 37 37 34 34 36 39 41 45 41 40 39 39 40 41 41 43 45 46 47 52 53 51 55 59 60
13 13 18 18 18 23 30 36 37 35 37 39 38 35 32 30 31 34 38 37 36 33 35 37 41 43 45 42 43 42 42 42 46 42 47 47 50 52 57 59 57 61 63
18 16 15 18 19 17 20 25 27 31 30 28 26 24 23 23 26 30 34 34 35 34 32 33 38 42 45 47 46 46 43 44 48 51 52 54 57 61 68 74 74 73 70
34 22 18 15 13 14 14 15 22 24 24 22 21 22 21 25 27 28 31 32 32 31 28 31 35 40 48 52 52 51 48 48 51 58 63 65 66 68 75 81 76 73 71
42 37 29 21 22 21 17 16 16 17 19 22 23 22 24 25 26 27 29 33 30 27 29 33 38 42 50 52 52 51 52 60 63 63 67 72 71 74 74 74 76 71 66
42 43 44 36 30 27 24 24 20 16 16 17 22 20 21 24 26 25 24 29 29 30 32 38 41 44 48 53 55 59 62 66 66 67 71 76 76 79 78 80 77 73 64
34 34 36 37 36 33 29 31 31 29 26 28 24 25 27 27 28 33 34 32 33 32 35 40 43 46 51 59 61 61 63 67 67 67 71 73 75 79 79 79 76 68 67
33 31 29 28 28 30 31 31 30 33 31 27 24 28 32 31 33 38 38 36 36 34 37 42 46 50 55 59 62 64 67 68 71 68 72 75 77 76 77 77 73 77 73
37 33 32 30 29 27 27 30 30 34 38 38 35 32 28 31 35 37 40 39 38 33 37 43 46 53 57 59 62 64 65 71 71 71 75 76 76 72 75 70 81 76 63
42 39 34 32 31 30 28 28 30 28 29 32 37 38 38 35 34 36 38 38 39 40 40 40 45 49 53 56 59 61 64 72 71 74 76 75 74 72 74 71 67 63 51
57 51 46 42 38 34 31 31 32 32 30 29 30 31 33 36 36 36 38 38 38 40 43 44 51 51 54 56 57 59 67 70 71 77 76 75 78 80 67 65 62 50 50
66 64 58 54 49 42 40 38 37 36 35 35 34 33 29 29 30 31 32 34 34 38 46 48 51 50 54 53 54 58 64 67 74 76 73 74 78 69 68 63 60 56 54
62 57 53 58 59 54 47 43 44 40 39 40 38 37 37 31 30 32 31 35 33 34 37 36 36 41 42 43 50 60 66 72 74 74 71 75 72 65 68 59 57 56 50
52 56 53 52 51 53 57 54 47 45 43 40 41 42 39 37 35 35 36 42 41 39 36 36 37 37 41 48 61 67 74 75 74 75 76 73 69 62 62 60 57 52 54
49 49 50 46 48 50 50 52 56 52 50 48 44 43 43 43 38 38 40 45 49 50 47 47 46 44 50 62 71 77 80 79 79 77 76 71 67 63 64 61 57 56 54
51 49 50 47 46 43 45 46 48 49 51 53 54 48 46 44 42 42 44 48 55 56 54 54 54 57 62 73 81 82 84 83 85 81 75 69 69 64 63 60 59 57 55
54 51 55 55 45 38 39 40 41 45 45 47 51 54 51 47 46 44 46 47 54 60 61 61 65 70 73 77 80 84 88 89 86 78 75 69 67 68 65 61 59 58 59
52 51 50 49 49 45 34 31 32 35 40 43 42 43 46 47 47 47 48 51 54 64 66 73 78 80 82 85 89 89 91 91 89 84 80 71 70 70 67 66 65 66 67
49 50 51 50 46 45 42 35 28 26 30 32 36 34 35 37 47 46 48 54 59 61 70 77 86 88 89 90 93 93 92 96 93 89 77 77 72 70 74 74 74 75 69
51 51 53 52 47 43 44 41 33 31 30 31 29 28 28 31 34 43 45 53 60 63 65 74 82 88 95 98 98 98 96 89 87 75 80 79 76 80 80 80 81 76 66
60 55 54 52 49 48 45 43 46 43 37 32 27 27 25 26 30 35 42 48 59 63 66 69 69 82 87 86 86 90 87 86 81 76 75 79 82 82 85 86 81 69 63
61 61 56 54 53 56 54 51 50 48 41 38 33 28 30 28 31 31 36 47 57 66 70 70 75 78 80 83 90 91 87 89 82 77 84 87 89 91 92 85 72 70 67
69 62 60 59 55 55 54 55 57 52 48 44 38 33 31 34 32 30 31 46 54 67 79 80 80 83 84 90 90 89 91 89 82 86 92 96 97 96 88 79 77 73 72

GFSMW_prec_cthk_240.txt.gz
RH
8 9 12 13 20 39 53 46 41 40 38 37 30 32 30 30 29 29 31 31 30 31 31 31 32 31 30 32 33 36 38 39 41 43 46 45 46 47 49 51 51 51 48
15 11 9 14 15 29 44 51 41 43 38 39 34 32 35 33 31 30 29 30 30 31 32 33 34 35 35 34 34 34 36 38 39 40 42 46 47 46 46 49 52 52 50
13 19 13 14 19 24 47 55 48 40 42 39 41 39 40 39 36 31 30 31 32 32 32 32 34 38 40 39 38 36 36 37 39 40 43 47 44 46 47 50 53 49 50
16 15 18 20 24 23 33 50 54 48 45 47 43 42 42 39 36 34 34 35 35 34 34 35 35 37 40 41 42 44 40 41 39 41 41 45 45 47 46 47 48 52 55
12 12 12 16 24 27 27 44 65 57 60 53 56 46 45 46 46 46 45 44 43 43 41 38 39 38 40 39 41 44 44 41 42 41 42 45 46 48 52 51 53 58 67
18 15 12 14 18 23 27 24 33 57 64 60 70 58 50 53 55 52 48 44 38 34 35 35 37 39 41 39 37 41 47 45 44 45 43 43 48 53 57 61 65 67 72
31 24 21 16 19 21 25 29 26 30 30 34 40 43 47 47 44 44 43 41 36 33 28 29 31 32 35 40 41 44 47 51 48 49 46 51 56 59 63 68 71 75 76
46 38 31 26 21 21 21 22 26 26 28 32 33 33 36 38 37 35 33 30 34 31 30 29 30 32 35 37 40 44 47 53 53 54 57 60 61 62 67 70 72 75 77
55 51 44 39 36 29 30 25 21 23 23 26 26 30 32 34 33 31 29 27 30 33 34 36 33 31 35 37 43 47 49 53 55 60 61 62 63 66 69 71 74 78 76
54 53 51 45 44 46 45 39 29 22 21 20 21 24 24 25 26 29 25 26 27 34 36 37 31 31 38 40 44 50 54 55 57 62 63 65 70 72 74 74 76 80 77
44 45 49 48 46 44 46 49 48 40 34 28 25 26 34 40 35 28 28 26 27 26 35 43 42 44 47 44 47 50 53 59 62 64 67 71 75 78 77 77 80 78 76
49 43 40 39 35 33 34 38 42 48 46 45 41 32 34 47 46 47 43 32 29 30 36 43 48 51 51 48 49 52 57 61 65 70 77 77 74 81 84 80 83 79 75
56 52 47 39 34 32 31 30 33 34 38 40 40 44 47 42 35 36 37 38 34 34 37 41 44 47 50 49 54 57 60 64 65 72 76 79 83 84 77 82 79 77 74
66 62 52 45 40 37 34 32 31 31 32 32 33 36 40 46 47 43 40 41 46 42 46 46 45 46 50 50 52 57 60 63 67 74 76 78 84 81 84 81 78 78 72
60 63 62 54 48 46 42 39 35 32 32 32 32 33 32 33 35 42 44 44 46 50 49 48 47 48 50 51 53 55 58 63 67 70 72 79 79 78 85 81 78 77 65
59 59 59 61 58 51 48 50 46 42 36 35 34 34 34 34 33 31 31 34 36 37 40 43 43 43 45 48 50 53 54 58 66 76 71 73 78 83 84 81 74 73 62
52 53 53 52 53 53 51 48 51 52 46 44 39 40 39 37 35 33 33 34 34 35 35 38 37 36 38 45 44 46 48 55 62 69 65 75 82 86 85 78 74 69 67
55 51 49 48 51 50 54 52 51 51 53 51 48 46 42 37 38 39 38 37 38 40 38 41 44 42 39 37 36 41 44 53 57 63 73 84 89 88 82 78 74 72 68
58 53 51 48 45 45 49 50 50 50 48 46 50 52 51 48 44 41 39 40 40 42 46 46 48 49 50 53 48 49 51 56 61 74 82 89 92 87 82 78 75 73 71
60 54 49 44 40 39 42 43 41 42 44 45 45 47 51 52 50 49 46 41 41 44 48 50 53 58 57 59 62 64 64 65 69 79 91 96 91 86 83 81 76 73 69
47 50 50 46 42 38 33 35 36 37 36 36 38 39 40 43 46 48 49 48 42 42 46 51 53 59 63 63 62 69 73 78 85 90 95 96 88 89 86 82 78 73 73
48 47 50 48 45 42 40 36 34 25 31 34 38 38 39 41 39 37 39 42 45 43 48 54 56 59 67 68 70 78 84 87 91 94 95 93 89 90 87 82 78 78 74
58 56 57 55 54 48 44 41 34 39 35 33 30 34 40 42 41 37 36 34 38 43 47 53 59 63 72 75 84 90 93 91 92 94 94 95 96 92 81 82 81 77 81
62 63 66 62 60 58 53 52 50 49 46 37 32 29 28 28 31 33 35 34 32 39 43 52 59 68 75 79 87 94 96 98 95 98 97 96 90 87 82 79 78 87 96
54 58 61 63 63 68 59 58 55 54 51 45 40 34 30 27 28 30 31 31 30 30 37 49 54 68 73 81 84 90 88 90 93 95 93 93 85 83 85 87 94 98 89
58 60 62 64 66 69 72 68 75 73 59 52 45 40 35 32 29 31 33 33 31 32 36 41 52 65 78 82 85 87 88 93 93 89 90 81 80 88 95 97 98 94 84

GFSMW_prec_cthk_243.txt.gz
RH
9 7 7 9 14 24 36 40 41 47 50 36 35 38 34 33 33 33 30 26 25 27 28 28 28 29 28 28 30 32 32 33 36 37 38 39 42 42 43 45 46 47 49
23 20 8 8 11 19 30 41 41 40 44 46 36 36 40 37 35 37 34 30 28 29 31 31 31 30 31 33 34 35 36 36 38 38 40 41 40 40 41 41 43 45 47
15 22 14 10 12 19 20 27 36 37 33 40 45 40 40 42 38 33 36 36 33 32 33 34 34 32 33 34 37 39 40 40 40 40 40 43 38 39 41 41 43 47 52
13 15 22 23 19 19 19 24 28 30 40 37 45 44 37 38 38 36 41 41 39 36 35 34 36 36 36 35 37 40 42 44 44 44 42 42 42 43 42 41 46 54 59
12 12 15 19 20 20 25 35 37 38 37 41 45 52 52 38 38 40 41 43 41 38 38 39 40 40 40 39 40 41 41 43 44 45 45 45 45 47 44 45 54 59 63
20 13 14 18 21 33 40 43 48 45 40 45 54 59 57 55 45 43 47 46 45 46 46 47 46 47 46 44 42 43 45 45 45 46 48 44 45 47 53 55 55 58 63
33 25 18 24 26 25 33 40 46 42 46 49 67 62 65 70 63 53 55 58 56 55 52 46 46 42 36 36 38 39 41 46 49 45 44 50 48 52 56 60 61 62 66
42 40 37 30 24 24 24 31 35 38 47 57 59 58 64 61 58 64 62 61 57 50 44 40 39 35 33 35 37 39 40 42 43 44 46 51 53 54 58 62 65 69 73
48 48 46 39 35 27 26 26 29 32 31 30 35 40 40 44 52 48 61 57 53 48 44 41 37 32 30 32 35 41 42 45 43 44 47 52 56 58 63 68 71 76 75
61 58 54 48 42 39 33 30 29 27 29 30 28 29 32 34 36 37 42 45 42 44 51 45 40 39 35 37 38 39 44 42 44 48 50 53 59 64 67 72 77 82 82
50 52 59 57 54 49 47 44 41 39 37 36 37 36 35 37 32 29 31 35 36 40 40 43 47 42 35 39 45 48 49 48 52 49 49 55 61 68 74 80 87 91 91
53 47 46 49 55 57 56 54 54 53 52 52 47 45 43 38 39 38 35 34 33 31 29 31 39 46 44 42 45 54 56 61 57 50 56 62 66 74 80 88 90 86 91
63 59 54 49 48 48 49 46 41 40 40 43 52 53 54 48 48 50 52 53 48 46 42 48 48 55 42 35 46 52 57 60 59 54 58 67 73 79 85 89 87 83 85
65 62 58 53 49 46 45 46 43 37 30 29 32 39 46 53 56 58 57 59 53 47 44 44 45 51 49 44 44 52 58 62 56 56 62 67 73 78 88 87 87 86 84
67 66 67 61 55 49 48 47 44 39 33 31 29 28 31 35 39 45 52 54 52 50 51 52 51 51 49 49 51 51 57 56 52 59 63 68 70 77 85 81 79 85 85
58 58 59 58 62 60 54 53 50 45 43 41 38 35 32 32 32 33 33 35 39 48 51 53 55 55 54 56 55 57 59 54 54 61 68 70 71 74 79 78 81 83 87
55 51 51 50 52 56 56 53 49 46 45 45 49 48 42 37 36 34 34 34 34 34 34 38 42 44 47 49 51 53 54 54 55 56 55 61 65 69 75 77 77 77 85
51 47 45 44 45 48 50 51 51 49 47 47 48 50 53 47 45 42 36 36 36 36 35 38 38 41 39 41 42 45 45 48 53 49 58 53 57 66 67 72 74 82 88
56 53 50 47 48 47 46 45 46 46 46 43 46 46 47 49 50 46 46 42 39 40 39 38 41 43 42 43 42 48 48 49 45 45 51 49 60 66 68 75 82 89 86
50 48 45 50 49 45 45 44 40 39 38 38 40 43 45 49 47 46 51 48 47 43 38 37 39 43 46 50 49 49 51 56 58 53 73 60 64 68 72 81 88 90 84
47 47 46 46 44 44 44 43 39 35 31 32 31 31 36 40 42 38 39 48 48 44 43 40 39 41 50 54 56 53 59 62 62 67 69 73 72 72 82 87 89 85 88
58 57 54 50 49 51 56 52 44 36 39 35 32 29 28 29 36 41 41 45 45 48 44 44 41 41 45 51 58 59 65 69 71 69 71 76 74 84 90 91 90 88 96
60 58 53 48 46 49 53 51 46 51 48 41 34 31 30 31 29 32 41 45 44 41 40 39 43 45 49 51 59 61 68 71 70 73 74 78 86 91 88 97 97 94 95
50 51 49 46 42 43 45 51 53 58 52 46 41 37 36 35 33 29 33 41 42 40 39 35 38 42 48 54 60 63 70 72 79 80 80 86 95 97 94 97 96 96 89
46 48 48 45 42 44 46 49 53 57 60 57 48 45 45 43 41 38 36 35 36 41 42 39 38 42 43 49 61 64 73 82 83 90 94 90 95 98 95 95 96 96 95
55 55 55 55 54 54 57 60 59 60 61 63 62 57 59 57 52 46 45 43 40 38 38 40 38 37 41 44 55 63 76 85 87 92 96 97 99 99 94 92 95 98 95

GFSMW_prec_cthk_246.txt.gz
RH
16 17 14 13 14 15 16 20 37 57 57 39 30 31 31 33 34 33 34 29 28 24 22 22 22 22 23 23 25 27 28 29 31 33 33 33 34 37 37 38 39 42 43
21 21 21 18 14 15 14 13 17 35 47 55 45 35 34 33 37 36 36 37 31 32 30 27 26 27 26 27 28 30 33 35 37 38 39 39 37 34 34 38 41 45 44
22 24 23 20 19 12 12 11 12 18 32 46 57 59 48 41 38 36 35 36 39 36 37 35 33 33 32 30 32 33 35 38 41 43 43 45 39 37 37 37 40 46 46
12 12 19 21 22 22 21 17 14 18 30 36 38 46 47 42 36 37 37 38 42 44 44 41 40 39 37 36 35 36 37 41 42 46 44 44 43 43 40 39 39 47 51
15 12 12 15 19 20 22 23 21 24 20 22 25 31 37 40 49 38 35 35 38 42 49 49 46 43 42 42 41 42 43 43 45 46 48 49 47 48 48 44 45 48 53
22 18 17 16 16 17 19 27 24 35 28 29 31 31 35 44 53 55 45 39 38 40 42 53 51 47 46 47 50 55 54 51 50 48 49 48 51 49 49 52 53 55 57
32 29 27 21 18 18 17 25 37 43 46 44 55 49 47 49 64 62 58 52 43 42 39 49 54 50 55 64 64 59 52 46 44 44 43 47 48 49 50 57 59 62 64
36 36 42 35 27 24 23 29 38 41 53 55 66 68 62 63 66 62 70 62 59 52 57 58 61 65 67 68 61 55 50 45 42 43 43 44 46 51 50 58 66 68 69
49 49 52 42 38 33 31 32 41 47 51 56 64 68 77 93 71 69 60 61 65 65 66 62 66 63 66 62 57 52 48 46 43 40 44 47 49 47 51 59 68 76 76
61 57 57 57 52 46 40 37 39 47 51 48 50 51 62 69 50 43 49 59 70 73 71 74 74 67 66 63 58 51 49 48 46 42 42 44 46 47 54 62 70 75 81
66 62 62 61 59 56 52 44 41 44 48 52 51 49 46 44 41 38 36 38 46 53 55 55 61 63 57 55 58 54 51 46 44 48 53 55 54 54 60 63 70 76 80
67 65 65 62 59 57 53 52 49 49 47 47 50 50 50 48 46 45 41 35 35 35 37 39 44 55 59 50 47 50 60 64 58 63 73 56 59 65 60 64 70 72 78
68 65 63 61 61 58 58 54 54 53 49 46 46 46 46 49 52 54 55 52 47 47 42 39 41 42 41 43 48 49 56 67 69 72 72 68 64 66 62 65 71 81 86
72 65 57 54 57 55 51 50 53 54 55 57 55 50 50 53 53 53 56 62 66 63 62 58 52 51 58 60 63 61 63 70 70 63 62 67 63 62 64 70 77 85 90
76 70 61 50 52 50 52 55 56 58 57 55 56 60 60 55 46 43 43 44 50 54 60 60 58 56 58 67 69 65 64 65 72 66 70 62 60 54 60 67 77 83 85
72 69 73 76 64 57 59 60 59 59 57 55 53 50 47 44 43 34 34 36 38 41 43 51 56 55 58 58 67 70 71 67 71 61 54 60 56 53 57 67 70 78 81
60 61 61 60 65 66 66 61 59 58 55 53 50 48 48 44 41 36 37 39 37 34 34 34 35 37 45 52 60 64 63 66 70 69 65 59 59 57 58 68 67 71 76
50 51 53 53 53 52 52 52 54 55 55 55 55 51 47 48 44 40 39 39 40 38 36 36 35 34 36 37 39 43 46 45 49 54 57 61 61 60 57 58 58 63 72
52 52 52 52 50 47 48 47 45 45 45 48 50 51 50 45 43 43 44 47 47 46 44 38 36 34 35 38 42 45 42 43 42 48 48 47 57 49 51 60 52 54 58
49 43 40 41 43 43 42 42 41 39 38 40 38 41 41 41 43 42 43 46 47 46 49 48 44 42 37 37 42 45 48 48 47 45 52 50 52 61 62 58 55 64 74
48 44 43 42 41 40 41 40 40 39 40 39 37 39 40 38 39 38 39 39 37 43 49 51 52 48 42 39 37 43 48 51 52 56 56 56 59 58 65 62 71 74 84
45 48 48 47 44 41 39 34 34 36 40 43 39 38 36 37 39 39 37 38 36 35 43 49 43 41 42 42 40 45 48 51 56 57 61 63 65 66 68 73 80 82 83
48 46 42 38 39 39 41 37 35 35 33 33 35 38 37 37 36 34 38 38 38 40 40 39 36 42 38 40 40 40 49 52 61 63 68 70 73 71 76 74 72 76 83
50 46 41 39 40 41 42 42 42 42 40 36 35 37 42 45 44 39 36 37 38 38 40 36 32 34 38 38 38 46 47 52 63 66 67 75 79 79 76 79 85 82 88
51 49 47 46 47 48 49 48 47 45 41 39 37 36 38 45 51 50 43 39 38 42 40 39 38 33 30 34 37 44 49 51 64 73 71 72 79 81 79 83 90 93 97
56 56 52 49 47 46 46 49 51 52 51 52 52 49 47 46 50 58 56 52 45 44 49 47 40 35 32 34 34 40 45 54 56 71 76 73 81 82 83 96 97 99 97

GFSMW_prec_cthk_249.txt.gz
RH
30 34 32 30 27 35 33 32 34 43 51 39 30 27 28 31 33 33 36 37 35 29 26 23 21 22 21 21 22 23 24 26 28 31 31 32 33 34 33 34 36 37 40
23 32 31 27 19 15 15 21 25 34 43 53 47 37 33 36 38 35 36 38 37 34 31 30 27 25 23 24 25 27 28 30 33 36 38 38 37 37 37 38 37 38 42
25 26 28 24 20 16 14 14 15 19 23 32 54 58 49 40 32 32 34 34 36 41 39 37 34 30 29 26 28 30 32 35 37 39 42 42 37 35 37 39 41 41 42
26 25 23 24 22 20 19 18 17 16 15 18 23 44 52 49 40 37 41 45 41 39 41 44 41 38 38 37 34 35 36 39 40 44 43 44 42 42 40 40 44 46 46
18 26 28 27 28 28 26 23 21 20 16 14 16 20 34 45 55 58 47 42 43 39 36 41 45 44 46 47 47 43 43 44 47 47 50 51 51 49 49 49 48 52 53
17 14 22 25 25 27 26 26 24 23 21 20 19 23 28 29 30 41 49 45 39 42 41 41 41 44 46 50 54 54 51 53 53 60 61 58 57 53 53 55 54 53 56
33 24 19 16 20 22 22 20 21 25 25 27 27 28 28 30 30 32 38 46 51 49 44 46 50 49 50 52 56 59 60 63 66 67 62 56 53 53 52 53 56 58 59
49 47 40 31 22 18 17 16 18 22 27 30 31 39 36 41 52 58 48 48 60 59 65 54 52 52 58 58 55 64 72 74 74 68 58 59 52 53 52 52 60 64 64
54 55 52 52 45 36 33 30 28 30 30 34 39 47 58 59 58 71 69 72 78 62 78 92 62 62 61 63 65 71 79 79 72 68 65 57 55 51 49 50 57 63 72
56 55 54 51 49 52 50 48 45 46 42 45 47 51 55 66 81 97 91 83 77 68 79 69 80 89 84 78 73 70 72 72 72 76 74 68 63 63 50 43 52 63 76
67 62 55 54 50 49 51 53 53 50 50 52 56 60 61 61 69 76 77 76 77 67 82 79 82 87 76 86 76 69 65 75 78 74 74 69 66 59 54 57 66 64 69
73 64 62 61 58 58 58 53 50 52 54 58 58 57 62 67 65 64 71 71 66 60 59 60 58 54 69 69 66 65 67 76 76 65 66 64 58 65 71 69 71 77 75
74 73 64 63 60 59 60 60 57 55 54 57 55 55 56 61 65 65 62 59 58 55 49 47 46 47 46 45 45 51 55 65 67 68 64 56 65 71 77 74 77 77 82
75 75 74 72 70 66 64 64 63 60 57 54 54 54 54 54 56 59 60 56 53 50 50 54 54 54 50 50 48 46 49 57 63 62 57 60 67 75 81 75 80 86 82
84 79 80 72 74 73 74 76 70 70 68 66 63 61 58 56 54 53 52 51 50 48 46 47 52 56 62 62 64 67 61 58 63 68 68 69 68 74 77 81 75 75 70
76 75 74 79 79 74 78 73 75 72 69 75 72 67 69 69 62 58 58 56 54 54 53 52 46 41 41 49 62 66 63 58 60 70 75 77 77 77 81 78 75 69 67
71 67 67 69 72 72 72 72 73 72 70 69 65 64 66 65 59 59 59 58 54 53 51 47 41 37 36 35 41 52 58 56 63 71 73 71 73 75 80 80 77 70 64
63 64 61 58 59 63 64 64 64 64 65 66 67 64 62 58 59 58 58 56 51 48 47 45 41 38 37 36 35 35 39 43 48 49 52 59 61 63 64 67 70 72 72
63 62 59 60 58 55 52 51 50 51 55 57 59 60 61 60 60 61 57 48 49 49 45 47 45 40 34 34 34 37 36 37 41 44 44 44 47 49 53 52 55 56 60
54 49 50 46 45 44 41 39 39 40 42 47 46 45 49 49 48 48 48 48 47 44 44 44 46 45 39 34 34 36 35 34 38 43 45 47 47 50 52 54 59 61 56
53 54 51 41 42 42 37 34 35 35 35 33 35 39 40 39 40 40 40 41 43 42 41 41 43 44 44 42 40 37 34 35 38 44 46 51 53 55 56 57 56 60 60
58 53 44 42 42 38 34 32 33 34 32 30 28 27 28 29 33 36 39 38 38 38 35 35 34 36 39 38 34 35 38 38 36 40 47 54 63 63 66 65 62 74 64
48 48 46 43 43 41 39 34 33 36 35 32 29 28 25 25 26 28 30 33 33 37 36 36 33 33 34 33 35 32 34 35 34 42 47 51 61 63 62 70 71 78 75
40 39 40 41 42 42 42 41 38 35 34 33 34 35 33 30 28 26 26 30 32 32 33 37 37 36 36 36 35 34 32 28 28 36 44 51 56 60 67 69 73 80 84
43 45 45 43 41 41 40 39 37 37 35 33 32 31 32 34 35 35 33 31 31 38 40 37 37 39 39 38 35 31 32 32 33 38 41 59 61 65 69 70 73 79 87
50 53 52 51 52 52 52 51 49 48 47 46 45 44 43 42 40 40 39 42 37 39 43 45 45 39 41 44 43 36 35 34 40 38 41 48 58 68 76 73 74 78 84

GFSMW_prec_cthk_252.txt.gz
RH
18 20 25 35 41 44 40 37 38 36 34 33 30 26 24 26 27 30 33 36 35 32 27 27 26 23 20 20 21 21 21 22 23 25 26 27 29 31 32 33 34 35 37
16 20 22 32 33 32 39 41 39 40 39 38 38 32 28 26 29 30 33 34 35 32 33 32 30 30 28 24 22 23 24 24 27 29 32 32 33 33 34 35 37 38 40
20 19 25 30 36 30 30 32 40 40 37 38 45 50 45 34 29 27 29 32 38 38 39 37 33 33 32 31 28 27 27 29 31 33 35 36 36 36 38 38 38 40 43
24 19 21 27 30 29 29 27 24 22 24 34 37 44 50 52 42 37 35 37 40 38 41 43 44 39 37 34 33 34 34 36 36 39 38 39 39 40 40 43 44 45 48
28 24 20 25 31 32 28 24 20 18 17 20 24 26 32 34 45 58 51 44 37 39 40 42 46 44 42 44 41 39 41 43 44 45 46 47 48 49 48 45 47 49 52
40 27 25 26 32 35 32 27 22 17 17 19 22 23 22 22 24 25 43 52 48 46 42 43 50 46 46 47 50 49 51 53 53 56 55 53 56 57 59 57 48 46 46
46 41 26 24 28 34 33 31 26 20 20 20 23 24 23 22 21 24 24 42 50 59 65 52 50 53 51 50 53 56 58 58 59 61 61 67 68 74 74 65 56 52 47
51 53 49 36 30 33 35 33 31 29 30 28 27 29 32 32 32 33 35 35 39 52 57 69 71 62 58 57 55 58 61 63 65 60 60 73 71 87 80 70 64 61 55
44 52 54 47 45 42 40 40 40 37 36 36 36 37 38 40 39 47 48 48 50 50 55 61 70 71 69 67 62 60 62 72 72 70 68 68 77 80 76 65 66 74 76
51 46 54 56 48 47 47 44 42 44 47 49 49 44 45 44 47 52 56 69 66 63 75 80 87 74 81 88 72 63 75 81 80 86 83 82 80 73 72 69 67 72 77
62 55 50 54 59 53 49 48 46 49 54 57 55 52 53 53 59 63 64 68 75 75 83 82 86 85 64 71 63 74 88 98 89 85 85 87 81 75 76 76 73 74 76
77 69 62 54 55 56 59 55 52 53 49 48 52 59 62 56 55 59 65 67 70 74 77 79 89 86 75 71 72 90 75 85 87 79 82 80 80 75 79 74 70 69 67
86 84 78 66 61 59 58 57 58 57 54 53 53 51 53 56 56 58 61 61 68 75 81 88 90 89 79 74 68 70 73 69 69 67 62 58 58 59 60 67 73 74 72
88 89 91 91 84 73 66 66 64 62 61 60 58 55 55 53 55 56 55 58 62 68 72 75 76 74 71 64 60 62 64 60 59 58 51 52 49 49 59 66 71 72 71
80 80 85 84 88 89 88 82 78 72 67 65 64 63 60 58 58 56 55 56 58 58 62 62 59 57 53 49 48 52 54 54 55 54 51 51 52 55 64 75 78 78 81
76 75 73 70 74 77 80 82 84 84 83 77 72 67 63 64 62 62 60 57 56 56 55 56 54 49 48 49 46 45 47 52 56 52 53 56 58 61 69 76 81 84 87
73 74 72 72 67 65 67 68 68 67 70 76 78 79 79 67 67 65 62 60 57 56 56 53 51 52 52 51 50 50 50 50 47 47 46 45 48 54 62 66 72 75 79
61 67 72 73 69 65 61 58 59 61 60 59 61 66 66 72 73 69 63 61 59 61 60 57 55 52 50 50 48 46 44 42 38 38 38 40 42 43 43 46 52 60 63
49 51 54 58 60 64 59 55 53 49 50 50 49 51 55 59 59 63 67 67 63 60 62 62 56 53 51 52 51 48 40 39 39 35 34 38 38 45 45 45 43 44 46
54 51 47 43 48 49 49 46 46 45 44 44 44 45 44 45 48 50 57 56 59 61 57 54 54 55 53 53 52 50 45 42 38 37 34 32 38 46 49 50 53 53 49
52 53 50 45 41 40 38 34 35 38 38 39 40 40 41 41 39 38 39 42 46 46 47 46 44 44 44 43 46 47 46 45 43 41 37 31 30 37 45 50 55 59 62
48 42 40 38 38 37 36 34 33 34 32 30 32 35 36 39 39 37 34 34 35 34 36 36 35 36 35 35 37 38 38 40 39 36 36 35 36 40 41 44 54 56 59
42 44 42 40 42 42 41 39 38 37 36 35 31 29 30 31 32 31 30 30 32 31 29 29 30 28 32 32 32 34 34 34 32 31 28 27 31 39 41 43 52 56 59
42 46 51 54 50 47 45 43 42 41 39 37 35 33 32 32 30 28 27 26 25 26 26 23 23 26 28 32 33 36 36 36 33 32 27 26 31 33 39 46 49 51 60
50 51 53 53 52 51 51 52 53 51 49 47 44 41 39 37 35 34 33 33 33 32 28 27 28 26 27 30 36 40 40 38 34 32 30 25 29 31 38 44 46 51 60
60 58 58 58 58 60 60 59 60 60 61 59 59 56 51 47 43 39 33 35 34 35 33 31 32 29 28 33 40 42 42 43 38 31 29 30 33 34 41 42 46 50 58

GFSMW_prec_cthk_258.txt.gz
RH
36 29 21 19 26 36 39 49 53 54 46 37 32 33 32 33 33 34 36 33 29 29 32 29 29 29 29 26 22 23 22 25 22 25 24 24 25 21 23 25 28 31 33
37 35 30 22 21 37 40 51 55 55 47 43 38 37 35 32 33 33 35 33 33 31 28 30 31 32 32 31 30 30 30 30 31 29 29 30 30 31 30 31 33 36 38
35 37 34 31 26 33 41 48 62 60 52 50 51 49 45 42 39 35 33 34 33 32 31 32 34 34 32 38 33 30 31 38 37 34 36 37 39 39 43 41 40 41 44
33 38 38 34 30 34 39 49 55 61 62 63 61 58 50 41 41 48 41 36 33 32 33 36 38 39 40 36 40 36 35 39 43 43 38 38 41 43 42 47 45 44 47
30 39 42 38 36 32 38 45 54 53 56 58 57 57 51 49 51 57 61 42 36 33 34 35 36 39 43 47 46 46 39 43 47 46 48 46 47 47 46 46 49 54 55
36 39 46 46 44 38 38 39 51 59 57 53 55 51 52 59 62 60 61 72 59 50 41 39 39 40 42 43 46 48 50 45 48 53 53 52 52 53 57 57 56 58 62
38 34 40 47 45 40 38 42 46 52 65 62 51 50 50 54 53 58 60 63 69 70 60 55 54 51 47 43 43 46 50 52 51 52 55 54 57 55 59 66 65 67 66
55 45 43 48 52 50 44 41 37 45 54 62 59 55 51 53 49 45 45 51 53 59 69 68 66 64 67 65 61 51 46 48 52 54 55 57 65 68 67 67 75 70 69
72 60 50 48 49 52 55 45 46 45 45 53 55 59 57 54 53 50 46 47 48 51 48 47 49 51 52 54 56 61 57 62 60 59 63 65 69 72 76 77 79 83 80
86 77 66 56 52 54 53 54 48 45 49 52 61 59 59 57 55 53 46 48 46 44 42 43 44 45 45 43 44 52 56 59 62 66 70 70 74 77 77 78 81 82 87
89 87 73 67 60 55 57 58 61 55 46 46 53 59 57 61 58 56 54 54 52 50 50 53 53 57 55 51 51 54 67 68 62 64 70 73 74 70 77 74 80 89 85
91 85 83 71 65 64 63 62 58 58 60 50 48 47 52 57 59 59 61 62 58 62 56 57 56 66 60 62 62 63 71 70 69 66 67 68 72 72 73 75 83 77 79
85 88 85 82 76 72 68 67 65 68 67 68 60 50 50 52 55 61 60 62 62 64 65 65 66 73 70 74 72 74 74 77 79 78 74 76 76 71 67 72 74 71 68
75 76 80 81 81 82 81 78 76 72 74 72 68 65 64 56 53 52 54 60 57 64 63 73 71 75 73 78 81 83 78 76 75 74 69 71 73 66 63 69 73 72 67
59 61 67 73 76 72 78 79 82 80 75 79 78 73 70 67 66 62 55 53 57 60 58 61 62 60 62 64 65 68 72 75 80 79 77 75 73 71 74 75 71 72 73
49 49 53 58 62 66 64 68 74 75 79 72 77 80 80 76 71 68 65 64 62 60 54 55 52 50 51 51 51 52 53 56 59 65 71 77 75 70 69 71 77 76 78
46 47 48 50 57 57 56 54 57 62 65 71 71 71 72 74 81 75 71 68 67 62 60 62 62 57 54 53 54 52 54 58 62 64 63 57 56 61 65 71 69 65 65
41 42 41 43 47 49 49 44 45 46 51 54 58 65 66 66 64 67 72 76 73 70 71 70 68 68 67 63 60 59 59 59 58 58 58 59 62 60 55 54 56 61 62
41 42 42 38 33 33 35 36 39 40 41 42 47 52 59 59 61 60 58 61 66 67 65 63 67 67 70 71 68 65 63 62 65 66 66 61 60 60 60 56 51 50 50
30 29 27 32 33 34 34 34 35 38 41 41 39 42 48 52 52 53 60 55 52 54 55 53 55 55 57 67 74 76 77 75 69 67 64 62 62 60 57 57 55 50 52
26 29 33 37 38 38 38 38 38 41 40 40 39 37 39 41 45 46 46 46 51 54 52 48 43 42 42 40 45 49 54 60 60 58 60 60 58 55 52 50 49 49 49
33 39 43 44 46 47 44 39 39 40 39 37 35 35 35 33 34 33 35 36 39 38 41 44 39 38 40 37 36 34 39 41 40 40 44 48 51 46 41 40 38 33 36
36 45 52 55 54 52 49 46 45 45 43 41 39 37 37 37 37 35 35 34 33 33 33 34 36 29 26 28 32 33 30 31 36 35 33 32 38 40 35 33 30 28 31
39 48 55 63 63 58 56 53 50 50 52 53 51 49 49 47 45 43 39 39 39 38 37 36 34 32 31 28 25 26 26 25 27 35 34 31 38 40 33 30 29 26 28
39 46 55 67 74 68 65 66 67 67 64 60 57 56 54 52 50 48 47 46 46 46 43 40 37 34 30 31 30 29 28 28 30 30 30 31 30 33 30 29 30 30 30
38 42 50 62 75 82 84 84 82 79 74 69 62 59 58 59 57 53 51 54 54 54 52 48 44 40 37 35 34 31 29 31 32 31 31 31 34 34 33 33 31 30 30

GFSMW_prec_cthk_264.txt.gz
RH
14 20 27 35 34 32 23 37 42 51 70 69 64 49 47 43 43 42 41 39 34 32 31 32 33 34 31 29 26 23 23 23 23 24 24 23 24 22 22 22 23 24 22
20 17 34 33 39 41 34 26 49 54 58 78 73 60 54 53 46 43 43 42 40 35 34 33 33 35 34 34 34 33 30 29 29 28 30 29 26 25 24 25 27 27 27
44 41 39 43 47 54 48 33 32 50 53 63 82 74 66 65 59 50 45 43 42 40 36 36 36 36 35 35 35 36 36 34 33 34 33 36 34 34 34 36 39 38 39
61 55 52 54 49 51 51 46 35 50 53 58 68 77 78 71 68 62 51 46 44 41 38 37 38 39 40 39 39 37 36 36 36 35 35 35 36 40 41 43 44 46 44
69 60 57 58 54 53 57 54 50 42 57 54 61 71 80 78 75 75 69 57 48 43 41 41 39 39 40 42 42 42 40 38 37 38 40 38 37 40 43 43 52 54 52
80 66 62 64 58 54 55 56 53 57 57 60 59 67 83 88 79 78 81 74 62 50 44 44 44 41 41 43 45 44 44 42 42 41 41 44 45 45 46 44 42 45 48
87 75 72 63 54 60 52 54 58 63 75 67 76 63 72 95 88 84 83 85 80 71 64 58 55 52 52 50 48 50 48 45 45 44 45 45 47 50 52 54 53 50 50
92 87 77 67 59 51 45 50 48 55 71 68 68 75 77 86 92 88 84 89 93 87 85 79 74 72 70 68 60 60 50 45 46 47 48 46 44 44 47 50 55 56 56
94 95 91 84 71 63 52 45 44 40 50 61 62 76 78 80 89 94 89 92 93 93 89 81 79 73 75 77 73 77 73 68 58 59 57 56 55 59 58 55 55 52 54
89 93 95 92 88 72 64 58 48 44 41 51 60 61 67 83 90 90 94 92 92 88 90 88 84 86 78 74 73 75 76 75 73 74 77 73 70 68 63 58 56 53 56
78 82 84 90 93 89 82 66 59 52 44 44 52 59 62 68 75 85 97 94 98 95 90 86 87 89 79 80 81 75 74 75 75 72 72 70 65 60 58 56 54 54 63
58 67 71 76 79 80 90 87 73 64 62 50 45 49 54 57 59 61 71 87 90 94 95 91 90 85 83 82 77 83 80 84 83 81 77 61 62 59 61 62 68 73 73
50 50 56 58 62 60 66 70 84 75 71 64 59 54 51 51 50 53 55 65 78 80 71 76 90 85 86 91 88 82 85 84 80 78 80 77 74 72 72 71 74 81 84
41 42 44 49 51 49 46 54 57 63 66 69 63 65 62 61 59 60 59 56 56 66 73 78 78 80 89 86 81 83 78 82 86 84 85 81 77 74 79 78 83 82 85
37 34 36 37 39 39 38 36 39 42 53 59 66 68 61 65 66 66 63 64 62 61 60 64 72 77 80 79 78 78 83 89 84 83 88 95 86 83 84 84 86 86 85
30 32 33 31 26 25 27 30 27 28 34 45 52 56 62 63 58 65 73 71 69 69 68 69 67 71 70 72 74 77 75 69 76 73 82 81 78 89 82 88 86 92 88
27 23 22 23 25 25 26 26 25 27 33 33 37 41 52 52 61 64 56 61 72 81 79 76 73 73 73 70 70 72 76 77 74 72 72 75 74 72 72 75 80 80 81
23 24 26 26 27 29 31 30 27 27 29 35 30 27 33 40 48 54 56 57 58 60 65 71 80 81 81 79 71 70 65 66 71 71 77 71 70 73 77 73 68 71 67
20 22 24 31 33 33 32 32 36 33 33 31 29 29 27 27 30 36 39 46 48 50 52 55 57 58 68 74 76 82 80 74 66 62 66 68 66 68 62 60 61 58 58
22 22 26 29 29 30 31 37 37 39 37 34 32 32 35 35 34 33 32 31 34 39 42 43 45 48 49 51 60 65 70 74 78 76 73 69 69 72 70 64 61 62 63
22 22 25 29 30 31 31 34 38 39 40 40 43 46 46 44 41 39 36 33 31 30 33 36 39 39 42 43 43 45 49 57 61 62 69 67 72 73 74 74 76 78 78
24 25 26 28 29 29 31 33 36 40 45 48 49 49 50 50 49 45 42 40 38 36 36 34 31 32 34 39 43 45 48 48 46 49 55 56 56 59 61 62 65 70 71
27 26 26 28 29 30 28 27 30 33 38 50 59 60 58 58 54 47 45 43 42 40 39 38 37 36 34 35 37 41 39 41 41 43 44 48 51 46 46 48 46 50 55
29 26 25 25 25 26 26 27 28 32 36 39 49 65 66 64 63 59 55 50 47 44 43 43 42 42 43 45 43 41 39 37 34 34 34 36 37 41 38 39 38 38 39
31 30 28 26 26 25 25 26 27 31 35 37 41 47 62 67 68 66 61 58 55 52 49 49 50 49 48 50 49 47 45 42 39 37 35 32 30 31 33 33 32 31 35
33 31 29 28 25 24 24 26 30 33 34 36 40 44 50 61 65 65 60 58 55 55 57 59 61 61 60 59 58 55 53 50 47 43 39 38 37 35 34 32 33 36 35

GFSMW_prec_cthk_267.txt.gz
RH
31 29 27 30 35 34 32 31 47 56 34 47 57 58 59 47 41 41 38 35 35 35 33 32 32 32 31 31 30 28 26 24 24 24 23 23 22 21 21 21 20 19 21
35 30 30 29 31 39 41 37 43 61 63 44 55 59 58 62 46 42 43 41 38 35 34 34 32 32 34 33 32 32 30 27 25 24 25 24 23 24 24 23 23 26 31
48 41 36 34 33 36 45 46 43 49 68 74 72 63 67 67 66 49 46 45 43 39 34 35 37 33 33 34 33 33 33 31 31 30 31 32 31 28 27 29 32 34 37
56 55 49 42 42 39 48 55 50 45 48 62 75 63 68 70 73 61 54 52 48 46 41 36 37 37 36 34 35 36 36 36 35 35 35 33 31 33 33 36 38 44 45
63 64 60 54 47 46 46 55 59 54 52 57 72 82 76 75 79 82 67 68 63 53 50 47 43 41 41 39 37 38 38 39 40 38 37 35 35 35 35 33 32 36 39
72 72 65 62 55 49 46 54 61 60 59 62 71 81 84 76 72 93 95 87 80 76 59 55 50 47 45 42 40 38 41 41 41 42 42 41 40 40 40 39 37 39 43
77 72 69 66 64 54 58 57 59 59 60 68 73 81 89 86 77 74 86 99 93 91 90 81 63 57 50 47 45 43 42 43 43 41 40 41 40 42 44 46 47 46 45
77 76 77 82 78 68 57 62 66 61 58 62 72 79 84 82 80 81 81 95 95 98 93 92 91 79 62 56 53 50 50 51 52 49 44 43 43 43 44 46 52 51 51
71 77 75 76 83 78 66 55 63 64 63 58 63 74 73 82 88 83 81 85 86 96 99 96 87 89 87 84 78 69 68 66 61 59 56 55 54 56 56 54 54 55 57
64 68 76 79 83 87 87 77 65 67 67 58 58 60 68 70 75 88 86 90 92 92 93 98 98 87 88 88 89 84 84 86 84 84 79 71 69 69 70 71 72 70 65
52 52 54 69 74 71 77 79 73 66 61 59 54 58 59 60 62 65 75 78 88 87 99 93 99 86 89 96 100 87 93 86 81 83 80 79 78 80 77 80 79 80 76
43 45 45 45 45 45 50 56 62 72 57 59 57 54 54 62 53 54 59 63 67 73 77 80 96 95 87 98 98 99 95 89 79 80 81 81 83 78 79 73 70 69 64
37 41 44 40 39 38 32 37 37 43 53 54 48 54 56 55 57 58 57 53 54 55 58 67 70 86 89 93 90 98 99 99 90 88 89 88 86 84 82 78 77 77 73
30 30 33 37 36 32 29 27 25 25 32 45 43 48 46 47 56 57 55 54 54 54 56 56 54 57 68 80 81 92 89 81 77 97 97 97 93 96 84 92 81 81 86
29 30 28 24 24 23 23 22 22 22 24 26 35 40 42 46 43 41 51 57 59 60 59 59 57 58 54 54 57 69 77 82 76 76 85 90 98 97 94 97 95 96 83
20 20 20 20 19 20 23 26 26 24 24 25 24 23 25 37 42 49 42 40 44 51 53 59 68 71 68 61 55 55 54 60 69 72 73 82 86 79 74 76 83 84 78
18 18 18 19 20 21 24 26 28 27 27 24 24 21 19 18 28 35 37 41 40 38 42 43 48 51 66 76 78 79 72 66 61 61 66 74 74 74 83 78 81 82 92
20 21 19 21 22 25 26 24 26 28 28 25 21 20 20 22 25 27 29 33 36 41 42 41 39 42 43 48 53 58 71 78 81 77 79 75 75 79 79 76 75 78 74
21 19 18 21 21 22 20 23 24 24 25 25 27 28 28 29 31 31 31 32 31 29 34 39 43 42 43 43 44 46 48 52 66 75 82 82 76 73 62 70 71 75 74
20 18 18 20 20 20 20 21 23 24 26 27 30 33 35 38 36 36 37 35 34 30 30 32 38 40 39 42 46 47 53 50 50 49 54 71 75 80 84 83 73 70 79
22 21 21 23 23 23 22 22 21 22 23 25 27 32 38 42 46 44 43 41 37 36 36 34 34 35 39 40 39 40 43 47 48 51 51 51 54 60 66 73 74 76 79
24 23 23 24 27 25 24 23 23 22 22 23 26 28 32 34 40 52 53 48 48 45 43 40 39 39 40 40 40 41 42 44 44 43 44 47 47 47 51 50 55 59 65
25 25 25 26 26 26 25 23 22 23 23 23 26 27 29 32 35 38 53 60 59 54 49 47 46 44 43 43 40 39 38 39 39 40 39 36 35 40 40 43 48 50 52
26 27 26 26 26 24 23 23 23 24 24 24 25 26 28 30 33 39 45 60 65 63 59 55 52 50 49 48 46 45 45 46 45 41 38 36 35 32 30 29 31 42 46
28 27 27 27 25 23 20 22 22 24 24 23 24 26 28 31 33 36 41 50 63 66 64 58 54 53 52 51 51 53 54 55 55 54 51 47 45 43 40 36 33 33 40
29 30 31 31 29 26 23 23 23 26 26 24 24 25 28 31 35 37 39 44 52 62 64 59 56 53 53 55 58 61 63 63 62 61 59 55 52 50 46 43 41 40 39

GFSMW_prec_cthk_273.txt.gz
RH
28 27 26 24 23 26 29 31 33 32 31 34 40 46 46 49 57 67 64 54 46 32 29 29 28 27 27 28 32 31 30 28 27 28 26 24 24 22 20 18 18 17 18
22 22 23 25 26 26 28 29 31 35 35 35 37 43 49 52 54 59 74 73 63 58 43 35 34 31 29 30 33 36 37 35 34 35 36 31 25 22 21 19 17 15 16
28 26 27 25 25 26 27 29 31 32 37 37 38 41 47 53 65 64 64 82 80 74 69 55 42 40 39 37 37 38 40 42 42 41 44 42 35 29 24 21 20 19 21
34 34 34 36 34 32 31 32 30 31 35 38 42 43 48 55 59 70 70 76 77 82 84 71 64 56 45 47 46 49 49 50 45 46 44 46 44 42 35 30 28 27 27
37 40 42 46 48 46 43 38 36 34 34 36 41 45 52 57 65 71 78 76 80 78 82 88 73 63 60 57 55 52 52 54 55 54 51 49 49 50 51 44 38 37 37
36 39 43 49 50 52 54 51 45 40 37 36 36 39 47 58 61 66 80 86 92 88 90 89 94 88 70 64 66 66 65 67 62 61 64 62 59 56 55 52 47 47 40
37 43 42 46 51 54 55 55 54 52 46 42 40 40 42 51 58 63 68 85 94 92 99 97 94 96 99 84 74 74 78 72 76 75 70 73 73 70 70 65 58 53 50
36 39 39 41 50 53 54 56 56 59 57 53 49 45 45 47 55 56 61 68 86 90 96 93 96 98 95 95 99 91 74 91 92 89 79 81 79 77 75 74 74 67 57
30 31 33 36 43 50 48 49 52 52 53 58 59 53 49 52 53 61 58 64 66 80 93 88 98 94 96 92 94 91 94 88 84 92 89 87 89 87 85 78 74 75 70
26 26 27 29 31 32 33 37 43 44 49 49 53 55 56 50 51 55 63 62 58 67 71 69 85 89 90 90 92 95 98 96 89 94 92 94 88 94 90 86 86 80 78
22 22 22 22 22 20 22 22 24 31 39 38 46 43 45 48 46 49 54 56 64 57 59 66 72 77 78 80 82 87 87 90 93 94 96 94 91 90 96 85 82 98 90
20 20 20 17 17 17 17 17 18 20 24 28 35 43 32 32 33 31 37 45 46 50 48 49 57 61 61 63 65 70 73 74 84 87 90 91 91 96 91 88 91 97 90
20 19 16 15 16 16 16 16 19 21 21 21 20 24 28 30 30 29 26 26 28 28 33 37 35 39 40 44 51 64 67 60 59 60 70 75 82 86 89 91 94 94 92
19 17 16 15 15 14 14 17 19 20 20 20 17 14 14 14 18 22 26 28 27 24 23 22 22 22 23 24 27 28 36 47 54 51 53 56 61 67 77 78 81 86 84
19 18 15 14 13 12 15 16 16 17 17 17 16 16 17 17 17 15 15 14 14 14 14 16 20 24 25 23 22 26 26 28 31 39 53 54 54 54 57 59 65 68 66
21 20 15 13 12 14 14 14 14 14 15 14 14 14 14 14 14 15 16 16 16 16 15 15 15 15 17 20 21 21 24 27 27 29 35 39 48 58 55 46 50 53 57
25 22 14 13 14 15 16 15 16 15 14 14 13 13 13 13 13 13 13 13 13 14 15 16 18 19 20 20 20 21 22 23 25 28 30 33 38 39 43 59 61 58 55
27 21 14 14 16 18 18 17 17 16 14 13 12 12 12 13 14 14 14 12 12 12 13 14 16 20 26 28 28 26 24 24 25 26 28 30 30 36 39 40 43 56 65
27 18 15 15 18 19 19 18 18 16 15 13 13 13 13 13 13 12 12 13 12 12 12 14 16 20 23 30 34 33 31 30 30 31 30 30 31 31 32 36 40 42 45
27 17 17 17 19 20 21 20 19 17 15 14 15 15 15 14 14 14 13 14 16 17 18 18 19 20 25 29 36 41 39 36 34 33 34 34 34 34 36 36 36 40 45
26 19 19 20 21 22 22 22 20 17 15 15 15 14 14 15 17 16 16 18 19 19 18 19 20 23 27 31 37 45 48 44 40 38 37 38 38 37 37 38 38 38 39
26 20 21 22 22 23 22 20 19 17 16 16 16 16 14 15 19 18 18 19 20 19 19 21 22 26 29 32 36 45 54 55 50 45 43 41 41 40 40 41 40 38 37
25 22 23 23 22 22 22 21 19 18 19 20 18 17 15 14 18 18 19 20 21 22 24 26 28 30 34 37 38 45 60 63 57 51 48 46 45 45 44 45 44 44 41
25 23 24 24 23 24 23 22 21 21 20 20 18 17 15 15 19 19 21 21 22 23 27 31 33 36 38 41 43 50 61 64 63 58 54 53 53 56 55 52 50 48 47
26 25 25 25 26 26 25 25 25 23 22 21 19 18 18 19 20 19 20 20 23 28 31 36 40 41 42 46 49 55 61 64 64 59 57 60 64 66 67 67 66 63 58
27 25 26 27 28 28 28 27 26 25 24 23 20 18 19 19 20 20 18 19 23 27 35 41 45 44 48 51 55 59 60 61 60 59 61 65 72 78 80 80 78 76 74

GFSMW_prec_cthk_276.txt.gz
RH
29 27 25 23 20 20 20 20 22 26 30 30 28 30 36 45 49 55 61 72 76 73 58 50 42 37 35 33 32 31 32 32 31 34 31 27 25 25 24 23 23 23 22
25 24 24 24 24 22 21 21 23 23 25 29 33 32 37 45 48 55 59 62 66 74 82 69 59 48 43 41 37 34 33 35 37 38 37 35 29 27 27 27 25 24 24
24 26 28 28 28 27 26 24 22 23 25 27 30 34 36 41 50 55 58 60 68 65 76 83 80 68 57 52 50 47 41 37 36 38 44 45 38 34 32 33 30 28 27
23 26 28 28 30 31 32 32 29 27 26 26 28 31 37 38 41 49 55 64 64 68 72 79 81 94 81 66 59 56 56 56 48 45 44 46 46 44 40 37 36 36 33
25 24 24 25 27 30 32 33 37 37 35 33 32 31 33 39 42 47 53 55 64 69 75 72 79 78 90 93 82 69 60 58 59 60 59 59 60 57 55 45 43 42 39
29 28 28 28 29 28 33 33 33 39 42 41 39 37 35 35 38 43 48 55 56 80 80 83 80 78 87 85 95 88 81 77 74 68 65 64 66 66 66 60 52 52 48
29 27 27 28 31 30 34 34 33 33 38 44 47 45 45 44 41 39 42 51 57 62 72 80 87 95 86 85 87 92 98 98 85 85 78 77 71 80 74 70 65 56 51
26 26 25 25 25 27 27 28 26 28 33 36 43 50 49 50 51 49 46 46 52 56 60 64 75 89 95 95 92 93 93 88 99 98 98 88 99 88 81 78 76 78 67
22 22 22 22 21 21 21 19 18 22 27 28 36 38 48 49 54 50 47 45 47 55 60 58 57 59 68 91 95 94 95 95 95 96 98 98 98 96 91 94 85 82 79
21 21 22 19 19 17 17 16 15 17 20 24 26 28 31 41 39 44 42 39 37 39 44 56 58 57 57 66 69 71 82 89 88 90 94 89 93 97 89 95 97 97 96
20 19 19 17 18 17 16 14 15 17 18 18 18 17 20 27 34 37 37 35 32 29 31 36 41 48 42 43 50 53 63 66 66 71 77 81 83 88 88 91 93 92 98
19 17 15 16 15 14 13 14 17 17 18 17 15 13 13 14 17 24 31 31 30 31 26 22 24 26 30 29 28 29 35 45 45 54 54 57 61 66 75 79 82 89 91
18 16 14 14 13 13 13 16 16 16 16 15 15 15 16 17 17 18 18 21 24 25 24 21 18 16 17 18 18 20 19 21 21 24 33 41 43 44 47 55 69 68 71
19 16 15 13 13 13 15 15 15 15 15 15 15 15 15 15 16 16 16 16 15 14 14 14 15 17 16 16 15 14 15 16 17 18 20 23 31 41 44 47 47 48 51
20 16 16 13 12 13 14 13 13 14 13 13 12 12 12 12 12 12 13 12 11 10 10 10 10 11 13 14 15 15 15 16 16 18 19 19 22 28 37 47 54 54 49
23 20 17 12 11 13 13 13 13 13 13 12 11 10 10 10 10 11 10 10 10 10 9 9 9 10 12 13 14 15 18 19 20 19 18 20 21 21 21 26 34 48 59
24 22 19 13 12 14 14 15 15 15 14 12 11 11 10 10 9 9 9 9 9 9 9 9 10 11 12 13 14 17 18 20 24 24 24 23 23 24 23 21 22 27 35
25 25 21 13 14 16 16 17 17 16 14 13 12 11 12 11 11 10 9 8 8 9 10 10 11 13 15 18 20 19 19 22 24 29 31 31 29 28 28 27 24 24 27
25 25 21 14 16 17 18 19 18 18 15 13 12 12 12 11 11 10 10 11 12 11 12 13 14 15 15 19 23 24 24 23 25 29 37 37 35 35 33 31 29 28 27
26 25 22 16 17 18 19 19 19 17 15 14 14 14 13 12 11 11 13 15 16 16 17 18 20 22 22 25 28 29 28 27 27 31 39 49 47 43 41 38 34 30 31
27 25 23 17 18 18 19 19 18 17 16 15 15 15 15 14 13 12 13 15 15 15 16 16 19 22 24 27 31 35 37 36 35 36 43 54 56 52 48 46 45 42 38
27 26 23 18 19 20 20 19 19 18 18 17 17 16 15 14 12 12 12 15 15 15 15 16 17 20 23 29 33 37 40 44 45 44 51 64 64 58 53 52 51 49 47
29 27 23 20 20 21 21 21 20 20 20 19 18 17 16 14 13 14 14 15 15 16 17 19 20 22 26 32 37 39 43 48 50 53 59 66 65 63 60 59 57 55 54
30 27 24 21 21 22 23 23 22 22 22 22 20 18 17 14 13 13 15 15 16 17 19 21 23 25 31 36 39 44 49 54 56 57 60 63 65 63 63 63 66 66 67
31 26 24 22 22 24 26 25 24 24 24 23 21 19 17 15 15 14 15 15 16 18 21 24 27 30 34 40 45 50 56 60 63 63 63 63 64 65 68 72 76 80 83
28 26 25 24 24 27 27 27 27 27 26 25 22 20 17 16 16 15 14 12 12 15 21 26 30 34 42 44 49 54 59 65 69 71 73 76 78 82 87 91 90 90 90

GFSMW_prec_cthk_279.txt.gz
RH
33 29 28 27 24 22 21 19 19 19 18 19 21 22 28 37 43 45 48 54 60 65 71 65 58 58 55 52 46 43 41 38 37 36 31 32 30 28 25 22 21 21 21
32 33 32 28 26 24 21 20 19 19 19 20 22 24 26 30 36 44 46 49 54 61 69 73 75 74 66 58 54 48 45 45 46 44 44 39 35 33 29 29 27 25 26
29 26 24 23 21 21 22 23 24 22 21 20 21 23 25 32 31 36 41 46 53 58 63 71 71 74 78 82 74 64 55 53 53 50 54 53 47 42 40 37 36 34 32
23 21 20 19 19 19 18 19 26 28 28 27 25 24 24 24 26 34 36 42 47 50 57 64 69 75 72 75 85 89 78 67 60 60 55 56 57 61 53 49 47 46 45
24 22 20 20 20 20 19 19 18 20 26 31 31 31 29 29 29 30 32 40 45 52 56 57 61 69 72 79 75 81 90 98 84 72 65 62 62 63 63 56 56 54 50
24 23 21 21 21 19 17 16 17 17 17 19 28 34 37 36 36 37 36 36 37 48 54 58 61 64 67 73 77 81 77 86 86 96 99 94 83 77 80 70 63 61 57
21 21 20 18 17 15 14 13 15 17 17 16 18 20 25 35 41 43 43 45 46 43 42 47 54 60 63 71 77 86 84 74 74 75 83 91 93 96 98 90 91 77 68
20 19 18 16 14 12 13 12 14 15 15 14 14 14 15 18 28 39 42 41 43 45 46 47 50 55 55 58 65 75 82 83 90 89 87 83 83 86 93 98 92 95 96
16 17 17 16 15 13 11 10 13 14 13 12 11 11 11 14 17 24 33 34 38 39 38 38 39 41 50 55 55 58 57 64 68 75 81 83 87 88 92 92 93 93 92
18 18 18 17 16 15 13 12 14 14 13 11 10 10 10 11 12 13 17 30 34 33 33 33 34 34 34 33 37 41 43 46 51 54 58 64 71 81 88 89 86 89 94
19 18 17 17 16 14 12 13 14 13 12 11 11 11 12 12 12 12 12 13 18 27 29 28 29 29 30 30 29 28 26 24 27 31 39 42 45 46 50 59 71 79 81
20 18 16 16 15 12 12 13 13 12 11 11 11 10 10 9 9 9 9 9 9 9 9 12 15 17 16 16 16 16 16 16 17 16 15 17 23 31 39 41 44 47 60
19 17 16 15 13 12 13 13 12 12 12 12 11 10 9 9 8 8 8 9 8 8 8 8 8 8 8 10 11 12 12 13 13 13 14 14 16 17 19 25 35 48 48
19 17 16 13 12 13 14 13 13 13 12 11 10 9 9 9 9 9 8 8 7 7 7 7 8 8 9 9 9 9 9 10 12 15 15 15 17 18 18 18 20 20 29
20 18 17 14 13 14 14 14 14 13 12 11 10 10 10 9 9 8 8 8 8 8 8 8 8 9 9 10 10 10 10 10 11 14 16 19 19 19 20 20 20 20 19
22 20 19 15 13 14 14 14 14 14 13 12 11 11 10 10 9 9 8 8 8 8 8 8 8 9 11 11 11 13 13 15 16 16 17 18 21 25 25 24 24 24 25
22 21 22 16 13 14 14 15 15 15 14 13 11 11 11 10 9 9 8 8 8 8 9 10 12 12 13 12 12 14 16 17 20 21 21 21 24 24 28 29 28 30 29
23 22 23 18 13 14 15 15 16 16 15 13 12 12 11 11 10 9 9 8 9 9 9 10 10 11 13 14 15 16 19 22 24 24 23 23 24 27 30 35 33 32 32
23 22 23 20 13 14 16 16 17 17 16 14 13 13 12 12 11 10 10 10 10 11 11 11 12 13 14 16 18 20 23 25 25 27 29 31 30 31 35 41 44 42 39
24 24 23 21 15 15 16 17 17 17 16 16 15 14 14 13 13 12 11 12 13 14 14 15 17 18 19 20 21 23 27 28 29 31 33 35 37 37 40 50 53 48 48
24 25 23 22 18 17 18 18 18 17 18 18 18 16 15 15 14 13 13 14 14 14 14 14 17 17 20 20 23 26 30 33 34 36 38 42 43 45 49 60 61 57 53
24 26 24 24 20 18 19 19 19 19 19 20 20 19 17 16 14 14 13 14 15 14 14 15 14 16 18 21 24 29 34 38 41 43 47 49 50 50 53 57 61 61 58
25 27 26 24 21 20 20 21 21 21 21 22 22 21 19 17 16 15 15 15 15 15 17 18 20 21 22 24 28 33 37 40 44 49 52 55 57 58 57 56 57 58 59
26 28 27 25 22 20 21 22 23 24 24 24 24 23 20 18 16 15 15 15 16 15 16 20 22 23 25 28 33 37 39 43 48 52 57 62 66 68 68 66 66 67 69
27 29 29 25 23 21 22 24 25 26 26 26 26 24 21 19 17 15 13 13 14 15 17 21 24 25 26 31 37 42 45 50 56 61 70 74 76 78 82 83 85 89 91
28 30 29 24 23 22 23 25 26 27 27 27 27 25 22 20 18 16 14 13 12 12 13 19 23 26 30 33 39 43 49 58 67 75 79 80 80 80 81 82 82 85 88

GFSMW_prec_cthk_282.txt.gz
RH
38 36 34 32 29 28 26 25 22 21 19 20 23 25 25 23 27 32 39 42 45 50 57 59 67 71 70 65 60 60 57 51 47 49 46 40 39 38 37 34 32 32 28
36 32 29 27 25 23 23 24 24 21 21 21 19 20 23 24 25 25 28 33 40 46 50 56 62 65 69 75 74 73 72 66 62 51 49 49 45 46 42 43 43 39 35
31 27 23 21 19 17 17 19 21 23 23 25 25 26 26 25 25 25 26 28 33 39 43 53 57 60 63 72 78 82 82 78 79 77 72 62 57 52 49 52 53 49 46
29 27 24 20 16 14 14 15 15 17 20 22 27 28 30 30 30 29 27 27 29 33 38 44 49 56 62 64 75 80 83 81 82 85 85 85 75 70 65 62 61 60 61
26 24 23 21 19 18 13 13 13 14 15 16 19 24 27 30 31 33 33 32 31 31 33 37 45 54 58 65 64 72 78 81 81 81 84 87 83 98 98 97 73 69 72
25 23 23 21 19 19 12 12 12 12 12 11 11 12 12 18 23 30 34 36 35 36 36 38 39 43 49 59 66 67 70 73 78 86 88 87 98 89 95 92 88 82 75
25 24 25 22 18 19 15 13 12 12 12 11 8 8 11 11 13 15 21 23 29 32 35 39 43 41 42 46 54 59 62 66 71 76 78 83 90 92 88 94 81 85 77
22 22 18 16 16 18 15 15 15 13 13 13 9 9 8 12 12 11 11 13 17 23 29 33 37 41 41 41 41 45 54 55 60 60 63 74 81 90 91 91 92 88 89
21 18 16 17 17 18 13 14 15 14 14 14 14 14 10 9 9 9 9 8 8 10 17 26 33 35 35 36 34 37 38 39 46 50 56 61 69 70 79 82 81 83 83
20 19 18 18 18 17 13 15 14 14 13 12 11 11 9 8 7 7 6 6 5 5 5 5 12 19 22 26 30 33 33 31 35 36 33 36 41 48 53 55 61 70 75
20 19 18 19 17 13 12 13 13 13 13 11 9 8 7 7 6 6 6 5 5 5 5 5 5 5 5 6 8 11 15 21 26 29 30 31 30 29 28 24 32 47 54
21 22 19 18 17 13 13 14 11 13 10 9 8 7 7 7 7 6 6 5 5 5 5 5 6 6 6 6 6 6 6 7 9 14 16 19 20 21 21 21 21 23 22
22 19 19 19 15 13 14 15 13 11 10 9 10 9 8 7 7 6 6 6 5 5 5 5 6 6 6 6 6 6 6 7 10 13 16 17 18 19 21 22 21 22 25
22 20 18 17 15 14 15 16 15 11 11 10 11 9 9 8 7 7 6 6 6 6 6 6 6 6 7 9 7 7 7 8 12 14 16 17 18 19 19 21 23 23 23
21 19 17 17 14 15 16 17 17 13 12 12 12 10 9 8 8 7 7 6 6 6 6 6 6 7 10 13 9 8 9 12 15 17 18 18 19 19 21 22 22 24 25
19 17 18 16 14 16 17 18 18 15 13 12 11 10 9 9 8 8 7 7 7 7 8 9 10 10 12 10 11 10 11 18 19 19 20 21 22 23 22 25 25 24 27
19 20 20 17 15 16 18 19 19 16 15 13 11 10 10 10 9 9 9 8 8 9 11 12 13 12 12 11 11 12 15 21 22 24 24 25 26 25 27 26 25 26 29
21 22 21 21 16 17 18 20 19 17 15 15 13 11 11 11 11 10 10 9 9 10 12 13 16 17 17 15 13 15 19 22 24 26 27 29 29 33 34 33 31 31 33
22 22 21 23 18 18 19 19 20 19 16 15 14 14 13 13 13 12 11 10 10 11 12 16 16 17 18 19 17 19 23 25 26 27 31 33 36 40 42 40 37 37 38
24 23 23 24 22 19 19 20 21 18 17 16 17 17 16 16 15 14 14 13 17 17 17 17 18 19 20 21 19 22 25 26 27 30 34 37 41 44 47 48 47 44 45
24 24 24 24 25 20 18 21 18 18 18 18 19 19 19 18 17 17 19 18 19 19 18 18 18 18 18 18 19 23 26 29 30 34 36 41 47 49 51 53 54 53 51
25 25 24 24 24 20 18 22 19 19 20 20 21 21 21 20 19 20 22 22 21 20 19 19 15 13 17 19 20 25 27 32 35 38 42 47 52 55 60 65 67 67 66
24 24 25 25 24 21 19 20 19 20 21 22 23 23 23 21 19 19 19 20 21 21 17 13 17 20 21 23 24 26 29 33 38 43 49 54 62 69 72 74 74 75 78
23 25 26 26 24 22 20 19 19 21 21 22 24 25 25 23 21 19 18 16 14 14 16 20 21 21 22 24 25 28 31 36 42 49 56 65 72 73 73 76 78 80 81
24 25 26 27 27 23 21 20 21 22 22 23 26 26 26 24 22 21 19 17 17 15 14 21 21 22 23 25 27 29 32 39 47 54 63 72 74 74 75 76 78 81 84
26 27 28 29 29 24 21 20 22 23 23 24 26 27 27 24 23 23 21 19 17 15 14 16 21 21 23 23 25 27 34 43 53 62 72 78 78 78 77 80 82 84 85

GFSMW_prec_cthk_285.txt.gz
RH
36 34 33 32 29 28 28 31 30 26 25 24 24 28 30 27 26 26 25 27 29 32 35 38 49 58 65 70 67 74 72 72 73 71 70 64 54 45 40 38 36 35 34
36 34 32 31 30 29 26 22 23 23 24 25 24 25 26 25 26 25 25 23 24 26 28 32 38 43 54 65 73 71 71 80 84 78 76 68 67 66 60 50 44 43 43
35 33 32 30 26 22 20 19 19 18 19 24 25 26 27 28 26 26 27 26 25 25 27 29 32 35 40 52 59 76 64 76 73 95 89 87 75 78 78 75 68 66 64
33 31 28 27 25 22 17 17 14 13 13 14 18 23 24 25 26 28 29 29 30 26 25 27 29 33 38 41 46 60 67 69 69 77 85 75 99 82 77 80 80 86 88
32 29 28 25 21 17 14 15 16 13 11 12 13 13 14 15 18 22 25 27 28 26 25 27 28 29 33 36 43 49 52 60 69 73 68 88 92 96 93 84 85 83 80
33 30 23 18 16 16 16 16 16 15 12 11 11 12 12 13 12 13 13 14 16 20 19 23 26 28 29 31 36 41 49 48 65 68 74 75 83 81 94 91 84 91 83
27 24 22 21 19 15 15 14 15 11 10 10 10 11 11 12 12 12 12 13 12 12 8 10 16 21 26 29 33 38 37 38 45 52 63 70 75 80 79 80 77 80 86
25 22 21 20 16 15 13 16 15 12 10 11 11 11 11 12 12 12 12 12 12 11 5 4 5 5 8 14 23 32 34 34 36 40 46 47 56 66 68 72 70 67 70
22 21 20 20 21 16 15 16 15 11 10 11 11 11 10 10 11 10 8 7 5 7 4 4 4 4 5 4 4 10 15 18 29 34 36 37 41 42 44 48 54 59 58
23 20 20 22 23 17 13 12 13 10 11 12 12 12 12 12 11 11 9 5 5 5 5 4 5 6 6 4 5 5 9 7 12 14 16 19 26 31 39 35 34 35 37
20 19 21 23 20 16 17 14 12 12 12 12 13 13 13 13 13 12 8 6 7 6 7 7 7 9 8 8 10 7 10 9 12 14 14 15 15 16 21 26 26 28 30
19 20 22 23 19 16 17 13 13 13 12 12 13 13 13 13 13 11 8 7 7 8 9 7 8 10 10 10 13 10 8 13 15 15 15 16 19 21 25 25 22 26 25
20 20 22 20 17 16 17 16 13 13 13 13 13 14 14 13 12 9 7 7 6 6 6 5 6 7 7 9 12 7 6 7 12 15 16 17 22 26 26 22 26 23 26
19 20 21 20 15 15 15 14 14 15 14 14 14 14 13 11 9 8 7 6 6 6 6 6 6 6 7 12 8 7 7 7 10 15 17 18 23 24 20 21 22 26 24
19 19 20 19 15 16 16 14 15 16 14 15 15 14 11 11 9 8 8 7 7 7 6 7 8 10 13 12 9 8 8 9 11 16 17 23 24 26 23 26 25 26 26
18 18 19 16 15 16 17 15 16 17 16 17 14 11 10 11 9 9 9 9 8 7 8 11 14 15 14 13 9 9 9 10 15 18 19 20 23 25 25 29 31 33 33
18 18 18 16 15 16 16 16 17 18 18 17 13 11 12 12 10 10 10 9 9 9 10 13 15 15 15 15 10 9 11 14 19 20 21 22 24 26 29 32 34 37 39
19 18 19 18 16 17 16 17 17 18 18 18 17 15 14 16 14 12 11 11 11 12 14 15 15 16 16 16 12 11 13 16 20 22 24 25 27 31 34 36 38 41 44
20 20 20 20 17 18 17 17 17 18 18 17 18 19 17 19 19 18 14 13 16 17 18 17 17 17 17 17 15 14 16 17 20 22 25 29 32 37 41 43 44 45 47
21 21 22 21 20 19 17 17 18 18 18 18 20 19 20 21 22 20 20 21 21 20 19 18 17 17 17 18 14 18 22 22 23 24 28 32 38 44 48 51 54 58 64
22 23 23 21 21 21 17 18 19 19 19 20 19 20 21 23 23 21 23 23 23 22 21 20 19 18 13 14 19 21 22 24 25 26 29 36 44 51 55 63 68 69 68
23 23 24 23 22 21 20 19 20 20 20 19 19 21 24 22 24 23 23 24 25 25 22 18 13 12 13 16 20 22 25 28 29 30 35 42 49 56 65 70 71 70 70
24 25 23 24 22 22 22 21 22 20 18 18 20 23 24 23 24 23 23 22 20 18 17 16 18 16 16 20 22 24 26 29 31 35 40 46 56 66 72 75 75 73 73
25 24 24 25 23 23 23 22 22 20 19 21 23 23 23 24 23 23 20 20 21 23 22 20 21 22 21 23 24 24 26 29 32 37 44 54 65 75 78 75 74 76 78
26 25 25 25 24 24 24 24 22 19 19 22 23 22 23 22 22 21 20 21 22 23 21 20 19 21 22 23 25 26 26 29 33 41 50 60 73 80 78 77 79 80 81
26 26 26 26 25 25 26 25 23 19 21 23 23 23 21 21 21 20 20 21 22 23 23 21 21 19 20 24 25 25 26 30 39 46 57 70 83 82 79 80 81 83 83